Weather History for KSJT - October, 2012

Change the Weather History Date:

Wednesday, October 31, 2012

  Actual Average Record
Temperature  
Mean Temperature 63 °F 61 °F  
Max Temperature 83 °F 74 °F 95 °F (2010)
Min Temperature 42 °F 49 °F 21 °F (1917)
Degree Days  
Heating Degree Days 2 5  
Month to date heating degree days 115 80  
Since 1 July heating degree days 117 91  
Cooling Degree Days 0 2  
Month to date cooling degree days 141 119  
Year to date cooling degree days 3185 2484  
Growing Degree Days 12 (Base 50)    
Moisture  
Dew Point 46 °F    
Average Humidity 61    
Maximum Humidity 93    
Minimum Humidity 28    
Precipitation  
Precipitation 0.00 in 0.07 in 1.29 in (1998)
Month to date precipitation 0.49 2.73  
Year to date precipitation 21.78 19.26  
Snow  
Snow 0.00 in 0.00 in 0.00 in (2002)
Month to date snowfall T 0.0  
Since 1 July snowfall T 0.0  
Snow Depth 0.00 in    
Sea Level Pressure  
Sea Level Pressure 30.03 in    
Wind  
Wind Speed 3 mph (WSW)    
Max Wind Speed 8 mph    
Max Gust Speed 10 mph    
Visibility 10 miles    
Events      
T = Trace of Precipitation, MM = Missing Value Source: NWS Daily Summary

Daily Weather History Graph

Daily Weather History Graph

Search for Another Location

Airport or City:

Trip Planner

Search our weather history database for the weather conditions in past years. The results will help you decide how hot, cold, wet, or windy it might be!

Date:

Astronomy

Oct. 31, 2012 Rise Set
Actual Time 7:57 AM CDT 6:53 PM CDT
Civil Twilight 7:32 AM CDT 7:18 PM CDT
Nautical Twilight 7:03 AM CDT 7:47 PM CDT
Astronomical Twilight 6:35 AM CDT 8:15 PM CDT
Moon 8:13 PM CDT (10/31) 9:33 AM CDT (10/31)
Length of Visible Light 11h 46m
Length of Day
10h 56m
Full, 97% of the Moon is Illuminated
Oct 31
Full
Nov 6
Last Quarter
Nov 13
New
Nov 20
First Quarter
Nov 28
Full

Hourly Weather History & Observations

Time (CDT) Temp. Windchill Dew Point Humidity Pressure Visibility Wind Dir Wind Speed Gust Speed Precip Events Conditions
12:51 AM 53.1 °F - 46.0 °F 77% 30.00 in 10.0 mi West 3.5 mph - N/A   Clear
1:51 AM 50.0 °F - 45.0 °F 83% 30.00 in 10.0 mi WSW 4.6 mph - N/A   Clear
2:51 AM 48.9 °F - 44.1 °F 83% 30.00 in 10.0 mi WSW 3.5 mph - N/A   Clear
3:51 AM 46.9 °F - 42.1 °F 83% 30.00 in 10.0 mi West 3.5 mph - N/A   Clear
4:51 AM 45.0 °F - 42.1 °F 90% 30.00 in 10.0 mi Calm Calm - N/A   Clear
5:51 AM 43.0 °F 41.3 °F 39.9 °F 89% 30.01 in 10.0 mi SW 3.5 mph - N/A   Clear
6:51 AM 44.1 °F 41.5 °F 41.0 °F 89% 30.04 in 10.0 mi West 4.6 mph - N/A   Clear
7:51 AM 42.1 °F 38.4 °F 39.9 °F 92% 30.06 in 10.0 mi SW 5.8 mph - N/A   Clear
8:51 AM 46.9 °F - 44.1 °F 90% 30.09 in 10.0 mi Calm Calm - N/A   Clear
9:51 AM 57.0 °F - 48.0 °F 72% 30.09 in 10.0 mi WNW 3.5 mph - N/A   Clear
10:51 AM 64.9 °F - 52.0 °F 63% 30.08 in 10.0 mi West 8.1 mph - N/A   Clear
11:51 AM 72.0 °F - 54.0 °F 53% 30.08 in 10.0 mi Calm Calm - N/A   Clear
12:51 PM 77.0 °F - 52.0 °F 42% 30.06 in 10.0 mi Variable 3.5 mph - N/A   Clear
1:51 PM 78.1 °F - 48.0 °F 35% 30.03 in 10.0 mi Calm Calm - N/A   Clear
2:51 PM 81.0 °F - 48.0 °F 31% 30.00 in 10.0 mi Calm Calm - N/A   Clear
3:51 PM 82.9 °F - 46.9 °F 28% 29.99 in 10.0 mi Calm Calm - N/A   Clear
4:51 PM 82.9 °F - 46.9 °F 28% 29.98 in 10.0 mi Variable 4.6 mph - N/A   Clear
5:51 PM 80.1 °F - 50.0 °F 35% 29.99 in 10.0 mi ENE 4.6 mph - N/A   Clear
6:51 PM 73.9 °F - 46.9 °F 38% 30.00 in 10.0 mi ENE 4.6 mph - N/A   Clear
7:51 PM 66.0 °F - 46.0 °F 48% 30.02 in 10.0 mi East 3.5 mph - N/A   Clear
8:51 PM 62.1 °F - 45.0 °F 53% 30.04 in 10.0 mi SSE 3.5 mph - N/A   Clear
9:51 PM 60.1 °F - 46.9 °F 62% 30.04 in 10.0 mi Calm Calm - N/A   Clear
10:51 PM 57.9 °F - 46.0 °F 65% 30.04 in 10.0 mi Calm Calm - N/A   Clear
11:51 PM 55.9 °F - 46.0 °F 69% 30.05 in 10.0 mi Calm Calm - N/A   Clear